DateTimeUTC,F1_A11,F1_S11,BsB_S11,BsG_S11,BsR_S11,BbsB_S11,BbsG_S11,BbsR_S11,BaB_A11,BaG_A11,BaR_A11,Tu_S11,T_S11,Uu_S11,U_S11,P_S11,T1_A11
2021-10-04T12:00:00Z,00000200,21000000,,,,,,,0000.64,0000.70,0000.44,16.3,23.5,,00.0,0667.4,30.8
2021-10-04T12:01:00Z,00000200,21000000,,,,,,,0000.27,0000.34,0000.48,16.3,23.5,,00.0,0667.3,30.8
2021-10-04T12:02:00Z,00000200,21000000,,,,,,,0000.26,0000.42,0000.29,16.3,23.5,,00.0,0667.3,30.8
2021-10-04T12:03:00Z,00000200,61000000,,,,,,,0000.18,-000.01,-000.10,16.3,23.5,,00.0,0667.3,30.8
2021-10-04T12:04:00Z,00000200,41000000,0000.20,0000.33,0000.24,-000.31,0000.26,0000.30,0000.38,0000.33,0000.62,16.6,23.3,,00.0,0668.3,30.8
2021-10-04T12:05:00Z,00000200,01000000,0000.39,0000.48,0000.30,0000.21,-000.19,0000.13,0000.18,0000.38,0000.18,16.8,23.3,,00.0,0668.4,30.8
2021-10-04T12:06:00Z,00000200,01000000,0000.30,0000.30,0000.27,-000.16,0000.18,0000.02,0000.25,-000.02,-000.13,16.8,23.3,,00.0,0668.4,30.8
2021-10-04T12:07:00Z,00000200,01000000,-000.44,0000.34,-000.03,-000.01,-000.27,0000.07,0000.21,0000.03,-000.07,16.9,23.4,,00.0,0668.3,30.8
2021-10-04T12:08:00Z,00000200,01000000,0000.48,0000.56,0000.13,-000.35,0000.13,-000.33,-000.20,0000.06,0000.31,16.9,23.4,,00.0,0668.4,30.8
2021-10-04T12:09:00Z,00000200,01000000,0000.79,0000.45,0000.11,-000.66,0000.10,0000.11,0000.15,0000.23,0000.02,16.9,23.4,,00.0,0668.4,30.8
2021-10-04T12:10:00Z,00000200,01000000,0000.52,0000.29,0000.27,0000.41,0000.02,-000.02,0000.03,0000.11,0000.29,16.9,23.3,,00.0,0668.4,30.8
2021-10-04T12:11:00Z,00000200,01000000,0000.68,-000.03,0000.17,-000.03,0000.01,-000.11,0000.26,0000.08,-000.22,16.8,23.3,,00.0,0668.4,30.8
2021-10-04T12:12:00Z,00000200,01000000,0000.48,0000.19,-000.22,0000.35,0000.03,-000.14,0000.46,0000.18,0000.35,16.8,23.3,,00.0,0668.3,30.8
2021-10-04T12:13:00Z,00000200,01000000,-000.33,-000.05,0000.22,-000.00,-000.07,0000.27,0000.42,0000.52,0000.31,16.8,23.3,,00.0,0668.3,30.8
2021-10-04T12:14:00Z,00000200,01000000,-000.11,0000.55,0000.33,0000.78,-000.05,0000.08,0000.50,0000.53,0000.20,16.7,23.2,,00.0,0668.3,30.8
2021-10-04T12:15:00Z,00000200,01000000,-000.41,0000.48,0000.37,-000.01,0000.10,0000.31,0000.07,-000.20,0000.11,16.7,23.2,,00.0,0668.3,30.8
2021-10-04T12:16:00Z,00000200,01000000,-000.62,0000.15,-000.05,-000.27,0000.08,-000.12,0000.35,0000.37,0000.30,16.7,23.2,,00.0,0668.4,30.8
2021-10-04T12:17:00Z,00000200,01000000,-000.14,0000.03,0000.05,0000.33,-000.13,-000.34,0000.16,0000.54,-000.02,16.8,23.3,,00.0,0668.4,30.8
2021-10-04T12:18:00Z,00000200,01000000,0000.49,0000.09,0000.14,0000.15,-000.02,0000.10,0000.47,0000.40,0000.30,16.8,23.3,,00.0,0668.4,30.8
2021-10-04T12:19:00Z,00000200,01000000,-000.08,-000.02,0000.02,-000.19,0000.40,-000.16,0000.01,-000.22,-000.29,16.9,23.3,,00.0,0668.4,30.8
2021-10-04T12:20:00Z,00000200,01000000,-000.51,0000.09,-000.15,-000.41,0000.03,-000.21,0000.22,0000.15,0000.66,17.0,23.4,,00.0,0668.4,30.9
2021-10-04T12:21:00Z,00000200,01000000,0000.30,0000.46,0000.13,0000.05,-000.19,-000.17,0000.01,0000.53,0000.36,17.1,23.4,,00.0,0668.4,30.9
2021-10-04T12:22:00Z,00000200,01000000,0000.60,-000.12,0000.21,0000.33,-000.16,-000.22,0000.82,0000.70,0000.23,17.1,23.5,,00.0,0668.4,30.9
2021-10-04T12:23:00Z,00000200,01000000,0000.55,-000.10,-000.09,0000.17,0000.31,-000.10,0000.58,0000.08,0000.20,17.2,23.5,,00.0,0668.5,30.9
2021-10-04T12:24:00Z,00000200,01000000,0000.01,0000.30,0000.31,0000.56,0000.11,-000.00,0000.03,-000.01,0000.28,17.2,23.5,,00.0,0668.5,30.9
2021-10-04T12:25:00Z,00000200,01000000,-000.26,-000.02,0000.33,0000.32,0000.14,0000.09,0000.46,0000.60,0000.04,17.1,23.5,,00.0,0668.5,30.9
2021-10-04T12:26:00Z,00000200,01000000,-000.02,0000.29,0000.10,-000.13,0000.12,0000.04,0000.04,-000.02,0000.43,17.1,23.4,,00.0,0668.5,30.8
2021-10-04T12:27:00Z,00000200,01000000,-000.11,0000.61,0000.15,0000.33,0000.07,0000.05,0000.41,0000.22,0000.22,17.0,23.4,,00.0,0668.4,30.8
2021-10-04T12:28:00Z,00000200,01000000,0000.02,0000.34,0000.25,0000.36,-000.06,-000.03,0000.49,0000.22,0000.17,17.0,23.4,,00.0,0668.4,30.8
2021-10-04T12:29:00Z,00000200,01000000,-000.38,-000.14,-000.14,0000.09,-000.04,-000.12,-000.09,0000.34,0000.18,17.0,23.4,,00.0,0668.4,30.8
2021-10-04T12:30:00Z,00000200,01000000,0000.00,0000.27,-000.25,0000.44,0000.47,0000.08,0000.37,0000.22,0000.45,17.0,23.4,,00.0,0668.4,30.8
2021-10-04T12:31:00Z,00000200,01000000,0000.23,0000.17,0000.35,0000.34,-000.08,0000.16,0000.14,0000.33,-000.04,17.0,23.4,,00.0,0668.4,30.8
2021-10-04T12:32:00Z,00000200,01000000,0000.23,0000.33,0000.20,0000.35,-000.30,0000.08,0000.05,0000.12,-000.30,17.1,23.4,,00.0,0668.4,30.8
2021-10-04T12:33:00Z,00000200,01000000,0000.33,0000.30,-000.01,-000.32,0000.04,0000.06,0000.28,-000.11,0000.44,17.1,23.4,,00.0,0668.4,30.8
2021-10-04T12:34:00Z,00000200,01000000,0000.77,0000.09,0000.34,0000.34,-000.06,0000.08,0000.19,0000.66,0000.16,17.2,23.5,,00.0,0668.4,30.9
2021-10-04T12:35:00Z,00000200,01000000,0000.98,0000.25,0000.01,0000.07,0000.34,0000.23,0000.59,0000.29,0000.20,17.3,23.6,,00.0,0668.4,30.9
2021-10-04T12:36:00Z,00000200,01000000,-000.02,0000.03,0000.18,-000.06,0000.02,-000.23,0000.49,0000.17,0000.21,17.3,23.6,,00.0,0668.4,30.9
2021-10-04T12:37:00Z,00000200,01000000,-000.13,0000.16,-000.15,0000.11,-000.33,-000.03,-000.27,0000.02,-000.14,17.3,23.6,,00.0,0668.4,30.9
2021-10-04T12:38:00Z,00000200,01000000,-000.67,0000.15,0000.22,-000.04,-000.16,0000.32,0000.52,0000.47,0000.06,17.3,23.6,,00.0,0668.4,30.9
2021-10-04T12:39:00Z,00000200,01000000,0000.36,0000.18,0000.29,-000.07,-000.03,-000.16,-000.26,-000.13,0000.36,17.2,23.6,,00.0,0668.5,30.9
2021-10-04T12:40:00Z,00000200,01000000,0000.73,0000.20,-000.06,0000.58,-000.03,-000.08,0000.46,-000.22,0000.06,17.2,23.6,,00.0,0668.5,30.9
2021-10-04T12:41:00Z,00000200,01000000,-000.16,0000.23,0000.16,-000.38,0000.08,-000.11,0000.01,0000.50,0000.15,17.2,23.5,,00.0,0668.5,30.8
2021-10-04T12:42:00Z,00000200,01000000,0000.35,0000.37,0000.06,0000.21,0000.13,0000.04,0000.18,-000.14,-000.37,17.1,23.5,,00.0,0668.5,30.8
2021-10-04T12:43:00Z,00000200,01000000,-000.19,0000.32,0000.09,0000.23,0000.09,-000.00,0000.12,0000.28,0000.47,17.1,23.5,,00.0,0668.4,30.8
2021-10-04T12:44:00Z,00000200,01000000,0000.30,-000.04,0000.07,-000.17,-000.11,-000.19,0000.16,0000.05,-000.15,17.1,23.5,,00.0,0668.4,30.8
2021-10-04T12:45:00Z,00000200,01000000,0000.38,0000.53,-000.12,0000.28,0000.17,-000.49,0000.10,0000.37,0000.14,17.1,23.5,,00.0,0668.4,30.8
2021-10-04T12:46:00Z,00000200,01000000,-000.63,0000.22,0000.02,-000.09,0000.30,0000.13,0000.27,-000.01,0000.62,17.1,23.5,,00.0,0668.4,30.8
2021-10-04T12:47:00Z,00000200,01000000,-000.04,0000.16,0000.26,-000.27,-000.20,0000.19,0000.30,0000.53,-000.23,17.1,23.5,,00.0,0668.4,30.8
2021-10-04T12:48:00Z,00000200,01000000,-000.50,0000.60,-000.07,0000.50,0000.14,0000.14,0000.29,0000.36,0000.33,17.2,23.6,,00.0,0668.4,30.9
2021-10-04T12:49:00Z,00000200,01000000,0000.34,0000.13,-000.02,-000.02,0000.29,0000.10,0000.82,0000.46,0000.38,17.3,23.6,,00.0,0668.4,30.9
2021-10-04T12:50:00Z,00000200,01000000,-000.10,0000.11,0000.09,0000.20,-000.01,0000.03,-000.08,0000.08,0000.39,17.4,23.6,,00.0,0668.3,30.9
2021-10-04T12:51:00Z,00000200,01000000,0000.13,0000.31,0000.15,0000.14,0000.05,0000.14,0000.48,0000.17,0000.04,17.4,23.7,,00.0,0668.3,30.9
2021-10-04T12:52:00Z,00000200,01000000,-000.30,0000.02,-000.02,0001.05,0000.24,0000.17,0000.08,0000.52,0000.13,17.4,23.7,,00.0,0668.3,30.9
2021-10-04T12:53:00Z,00000200,01000000,-000.03,-000.21,-000.05,-000.71,0000.04,-000.13,0000.18,-000.23,-000.08,17.4,23.7,,00.0,0668.3,30.9
2021-10-04T12:54:00Z,00000200,01000000,0000.25,-000.02,0000.12,-000.08,0000.14,-000.22,0000.12,0000.36,0000.28,17.4,23.7,,00.0,0668.3,30.9
2021-10-04T12:55:00Z,00000200,01000000,0000.27,0000.29,0000.11,0000.19,0000.33,-000.02,0000.24,-000.11,0000.06,17.3,23.7,,00.0,0668.4,30.9
2021-10-04T12:56:00Z,00000200,01000000,-000.02,-000.27,-000.20,-000.62,-000.05,-000.24,0000.17,-000.00,0000.22,17.3,23.7,,00.0,0668.3,30.9
2021-10-04T12:57:00Z,00000200,41000000,,,,,,,0000.09,0000.44,0000.10,17.3,23.7,,00.0,0668.3,30.9
2021-10-04T12:58:00Z,00000200,61000000,,,,,,,0000.06,-000.19,-000.42,16.9,23.7,,00.0,0667.4,30.8
2021-10-04T12:59:00Z,00000200,21000000,,,,,,,-000.13,0000.10,0000.19,16.9,23.8,,00.0,0667.4,30.8
